Location: Unspecified
(48.2082°N, 0.0000°E)
Time: 04:31:00
(UTC+00:00)

Vanguard 1 - Pass Details

Date: 29 June 2019
Orbit: 653 x 3830 km, 34.3° (Epoch: 20 July)

Event Time Altitude Azimuth Distance (km) Brightness Sun altitude
Rises 05:52:30 0° 273° (W) 6,930 13.8 15.4°
Reaches altitude 10° 05:58:39 10° 264° (W) 5,359 13.3 16.3°
Maximum altitude 06:09:25 26° 215° (SW) 3,067 12.3 18.1°
Drops below altitude 10° 06:16:22 10° 162° (SSE) 3,343 12.9 19.2°
Sets 06:19:12 0° 149° (SSE) 3,973 13.4 19.7°
